EW0890 Weather Reports


time (UTC)temp
C
wind
direction
speed
KPH
gust
KPH
rain 1hr
cm
rain 24hr
cm
rain mn
cm
humidity
%
barometer
mb
20260903160110 31 283 8.0 12.9 0.00 0.00 0.00 70 1015.3
20260903160030 31 256 8.0 12.9 0.00 0.00 0.00 69 1015.3
20260903155504 31 279 4.8 11.3 0.00 0.00 0.00 70 1015.2
20260903155003 31 296 4.8 9.7 0.00 0.00 0.00 71 1015.2
20260903154601 30 233 6.4 11.3 0.00 0.00 0.00 71 1015.3
20260903154507 30 249 6.4 11.3 0.00 0.00 0.00 70 1015.1
20260903154006 30 252 4.8 11.3 0.00 0.00 0.00 70 1015.2
20260903153507 30 252 4.8 11.3 0.00 0.00 0.00 71 1015.1
20260903153110 30 297 6.4 9.7 0.00 0.00 0.00 71 1015.2
20260903153008 30 266 6.4 9.7 0.00 0.00 0.00 71 1015.2
20260903152506 30 267 4.8 9.7 0.00 0.00 0.00 72 1015.3
20260903152011 30 289 6.4 14.5 0.00 0.00 0.00 72 1015.3
20260903151558 30 274 8.0 14.5 0.00 0.00 0.00 71 1015.2
20260903151514 30 257 8.0 14.5 0.00 0.00 0.00 71 1015.2
20260903151006 30 283 4.8 11.3 0.00 0.00 0.00 72 1015.1
20260903150508 30 278 4.8 9.7 0.00 0.00 0.00 73 1015.1
20260903150022 30 251 4.8 9.7 0.00 0.00 0.00 72 1015.1
20260903145511 30 283 3.2 11.3 0.00 0.00 0.00 74 1015.1
20260903145011 29 289 8.0 11.3 0.00 0.00 0.00 72 1015.0
20260903144602 29 307 8.0 11.3 0.00 0.00 0.00 73 1014.9
20260903144527 29 250 6.4 11.3 0.00 0.00 0.00 72 1015.0
20260903144004 29 293 6.4 11.3 0.00 0.00 0.00 73 1014.8
20260903143504 29 260 4.8 9.7 0.00 0.00 0.00 74 1014.8
20260903143111 29 219 4.8 12.9 0.00 0.00 0.00 74 1014.7
20260903143006 29 282 4.8 12.9 0.00 0.00 0.00 75 1014.8
20260903142506 28 272 4.8 12.9 0.00 0.00 0.00 74 1014.7
20260903142002 28 285 4.8 11.3 0.00 0.00 0.00 74 1014.8
20260903141608 28 283 4.8 11.3 0.00 0.00 0.00 74 1014.7
20260903141515 28 329 4.8 11.3 0.00 0.00 0.00 74 1014.7
20260903141007 28 248 4.8 9.7 0.00 0.00 0.00 75 1014.8
20260903140508 28 247 3.2 14.5 0.00 0.00 0.00 75 1014.9
20260903140022 28 252 3.2 14.5 0.00 0.00 0.00 75 1014.9
20260903135507 28 302 4.8 11.3 0.00 0.00 0.00 76 1014.9
20260903135009 28 295 3.2 9.7 0.00 0.00 0.00 76 1014.8
20260903134610 27 266 3.2 8.0 0.00 0.00 0.00 77 1014.7
20260903134526 27 160 3.2 8.0 0.00 0.00 0.00 77 1014.9
20260903134011 27 227 3.2 8.0 0.00 0.00 0.00 77 1014.9
20260903133518 27 285 3.2 8.0 0.00 0.00 0.00 78 1015.0
20260903133112 27 264 3.2 8.0 0.00 0.00 0.00 79 1014.9
20260903133031 27 257 3.2 8.0 0.00 0.00 0.00 79 1015.0
20260903132503 27 243 3.2 6.4 0.00 0.00 0.00 79 1015.1
20260903132003 27 254 3.2 6.4 0.00 0.00 0.00 79 1015.1
20260903131602 27 276 1.6 6.4 0.00 0.00 0.00 80 1014.9
20260903131510 26 269 1.6 6.4 0.00 0.00 0.00 80 1015.0
20260903131004 26 267 1.6 6.4 0.00 0.00 0.00 81 1014.9
20260903130504 26 287 1.6 8.0 0.00 0.00 0.00 81 1015.1
20260903130130 26 272 3.2 8.0 0.00 0.00 0.00 81 1015.0
20260903130015 26 327 3.2 8.0 0.00 0.00 0.00 81 1015.2
20260903125508 26 303 1.6 8.0 0.00 0.00 0.00 81 1015.1
20260903125008 26 342 3.2 8.0 0.00 0.00 0.00 81 1015.1
20260903124607 26 302 1.6 3.2 0.00 0.00 0.00 82 1015.0
20260903124520 26 266 1.6 3.2 0.00 0.00 0.00 82 1015.1
20260903124009 25 223 0.0 3.2 0.00 0.00 0.00 83 1015.2
20260903123512 25 242 0.0 3.2 0.00 0.00 0.00 83 1015.2
20260903123102 25 266 0.0 3.2 0.00 0.00 0.00 84 1015.2
20260903123034 25 243 0.0 3.2 0.00 0.00 0.00 84 1015.2
20260903122512 25 158 1.6 3.2 0.00 0.00 0.00 85 1015.2
20260903122019 25 155 0.0 3.2 0.00 0.00 0.00 86 1015.1
20260903121602 24 0 0.0 1.6 0.00 0.00 0.00 86 1015.0
20260903121530 24 228 0.0 1.6 0.00 0.00 0.00 86 1015.2
20260903121003 24 215 0.0 3.2 0.00 0.00 0.00 87 1015.1
20260903120504 23 255 0.0 3.2 0.00 0.00 0.00 88 1015.1
20260903120113 23 262 0.0 1.6 0.00 0.00 0.00 88 1015.2
20260903120013 23 274 0.0 1.6 0.00 0.00 0.00 88 1015.0
20260903115504 23 132 0.0 1.6 0.00 0.00 0.00 88 1015.1
20260903115003 23 113 0.0 3.2 0.00 0.00 0.00 88 1015.1
20260903114558 23 86 0.0 3.2 0.00 0.00 0.00 88 1015.1
20260903114516 23 347 0.0 3.2 0.00 0.00 0.00 88 1015.0
20260903114008 23 277 0.0 0.0 0.00 0.00 0.00 88 1015.0
20260903113509 23 247 0.0 1.6 0.00 0.00 0.00 88 1014.9
20260903113056 23 0 0.0 3.2 0.00 0.00 0.00 88 1014.9
20260903113024 23 247 0.0 3.2 0.00 0.00 0.00 88 1014.9
20260903112514 23 231 0.0 3.2 0.00 0.00 0.00 88 1014.9
20260903112018 23 240 0.0 3.2 0.00 0.00 0.00 87 1014.8
20260903111602 23 192 0.0 4.8 0.00 0.00 0.00 87 1014.9
20260903111532 23 262 1.6 4.8 0.00 0.00 0.00 87 1014.8
20260903111014 23 300 1.6 4.8 0.00 0.00 0.00 87 1014.8
20260903110515 23 324 0.0 3.2 0.00 0.00 0.00 88 1014.8
20260903110104 23 283 0.0 4.8 0.00 0.00 0.00 88 1014.9
20260903110032 23 283 0.0 3.2 0.00 0.00 0.00 88 1014.7
20260903105504 23 281 1.6 4.8 0.00 0.00 0.00 88 1014.9
20260903105007 23 281 1.6 4.8 0.00 0.00 0.00 88 1014.8
20260903104603 23 284 1.6 3.2 0.00 0.00 0.00 88 1014.9
20260903104514 23 254 1.6 3.2 0.00 0.00 0.00 88 1014.8
20260903104007 23 290 1.6 3.2 0.00 0.00 0.00 88 1014.8
20260903103509 23 290 1.6 3.2 0.00 0.00 0.00 87 1014.8
20260903103105 23 0 0.0 3.2 0.00 0.00 0.00 87 1014.8
20260903103020 23 310 0.0 3.2 0.00 0.00 0.00 87 1014.7
20260903102511 23 271 1.6 3.2 0.00 0.00 0.00 87 1014.7
20260903102015 23 284 0.0 4.8 0.00 0.00 0.00 87 1014.6
20260903101605 23 289 1.6 6.4 0.00 0.00 0.00 87 1014.7
20260903101524 23 269 1.6 6.4 0.00 0.00 0.00 87 1014.7
20260903101012 23 254 1.6 6.4 0.00 0.00 0.00 87 1014.7
20260903100514 23 266 1.6 3.2 0.00 0.00 0.00 87 1014.6
20260903100059 23 245 1.6 8.0 0.00 0.00 0.00 87 1014.7
20260903100033 23 11 1.6 8.0 0.00 0.00 0.00 87 1014.7
20260903095516 23 206 1.6 8.0 0.00 0.00 0.00 87 1014.7
20260903095015 23 281 1.6 4.8 0.00 0.00 0.00 87 1014.7
20260903094606 23 259 1.6 4.8 0.00 0.00 0.00 88 1014.8
20260903094539 23 278 1.6 4.8 0.00 0.00 0.00 88 1014.7
20260903094006 23 281 1.6 4.8 0.00 0.00 0.00 88 1014.7
20260903093508 23 244 1.6 4.8 0.00 0.00 0.00 88 1014.6
20260903093107 23 291 1.6 3.2 0.00 0.00 0.00 88 1014.7
20260903093038 23 245 1.6 3.2 0.00 0.00 0.00 88 1014.7
20260903092507 23 240 0.0 4.8 0.00 0.00 0.00 88 1014.7
20260903092009 23 302 1.6 4.8 0.00 0.00 0.00 88 1014.7
20260903091607 23 273 1.6 3.2 0.00 0.00 0.00 88 1014.7
20260903091524 23 285 1.6 3.2 0.00 0.00 0.00 88 1014.7
20260903091012 23 279 1.6 3.2 0.00 0.00 0.00 88 1014.7
20260903090512 23 290 0.0 4.8 0.00 0.00 0.00 88 1014.8
20260903090108 23 276 1.6 4.8 0.00 0.00 0.00 88 1014.8
20260903090030 23 255 1.6 4.8 0.00 0.00 0.00 88 1014.6
20260903085514 23 281 1.6 3.2 0.00 0.00 0.00 88 1014.7
20260903085014 23 297 1.6 3.2 0.00 0.00 0.00 88 1014.6
20260903084601 23 293 1.6 3.2 0.00 0.00 0.00 88 1014.7
20260903084533 23 295 1.6 3.2 0.00 0.00 0.00 88 1014.7
20260903084016 23 293 1.6 4.8 0.00 0.00 0.00 88 1014.6
20260903083516 23 281 1.6 4.8 0.00 0.00 0.00 88 1014.7
20260903083105 23 254 1.6 3.2 0.00 0.00 0.00 88 1014.8
20260903083032 23 291 1.6 3.2 0.00 0.00 0.00 88 1014.7
20260903082505 23 290 0.0 3.2 0.00 0.00 0.00 88 1014.7
20260903082007 23 311 1.6 3.2 0.00 0.00 0.00 87 1014.6
20260903081625 23 274 1.6 3.2 0.00 0.00 0.00 87 1014.9
20260903081520 23 271 1.6 3.2 0.00 0.00 0.00 87 1014.7
20260903081008 23 264 1.6 3.2 0.00 0.00 0.00 87 1014.7
20260903080510 23 275 1.6 3.2 0.00 0.00 0.00 87 1014.8
20260903080105 23 270 1.6 4.8 0.00 0.00 0.00 87 1014.9
20260903080027 23 288 1.6 4.8 0.00 0.00 0.00 87 1014.7
20260903075512 23 264 1.6 4.8 0.00 0.00 0.00 87 1014.7
20260903075013 23 245 1.6 4.8 0.00 0.00 0.00 87 1014.7
20260903074610 23 205 1.6 4.8 0.00 0.00 0.00 87 1014.9
20260903074530 23 270 1.6 4.8 0.00 0.00 0.00 87 1014.7
20260903074020 23 284 1.6 4.8 0.00 0.00 0.00 87 1014.7
20260903073519 23 277 1.6 4.8 0.00 0.00 0.00 86 1014.7
20260903073135 23 258 1.6 4.8 0.00 0.00 0.00 86 1014.8
20260903073033 23 259 1.6 4.8 0.00 0.00 0.00 86 1014.6
20260903072518 24 286 1.6 4.8 0.00 0.00 0.00 86 1014.6
20260903072021 24 304 1.6 4.8 0.00 0.00 0.00 86 1014.7
20260903071619 24 262 1.6 4.8 0.00 0.00 0.00 85 1014.9
20260903071534 24 272 1.6 4.8 0.00 0.00 0.00 85 1014.7
20260903071009 24 283 1.6 6.4 0.00 0.00 0.00 85 1014.7
20260903070510 24 278 1.6 6.4 0.00 0.00 0.00 85 1014.8
20260903070100 24 283 1.6 4.8 0.00 0.00 0.00 85 1014.9
20260903070028 24 285 1.6 4.8 0.00 0.00 0.00 85 1014.7
20260903065511 24 274 1.6 4.8 0.00 0.00 0.00 85 1014.7
20260903065012 24 240 1.6 4.8 0.00 0.00 0.00 85 1014.8
20260903064601 25 276 1.6 4.8 0.00 0.00 0.00 85 1014.9
20260903064527 25 311 1.6 4.8 0.00 0.00 0.00 85 1014.7
20260903064012 25 288 1.6 4.8 0.00 0.00 0.00 84 1014.7
20260903063512 25 278 1.6 4.8 0.00 0.00 0.00 84 1014.7
20260903063103 25 288 1.6 4.8 0.00 0.00 0.00 84 1015.0
20260903063032 25 281 1.6 4.8 0.00 0.00 0.00 84 1014.8
20260903062504 25 258 1.6 3.2 0.00 0.00 0.00 84 1014.8
20260903062007 25 278 1.6 3.2 0.00 0.00 0.00 84 1014.7
20260903061604 25 278 1.6 3.2 0.00 0.00 0.00 84 1014.9
20260903061512 25 233 1.6 3.2 0.00 0.00 0.00 84 1014.8
20260903061008 25 286 1.6 3.2 0.00 0.00 0.00 84 1014.8
20260903060508 25 271 0.0 3.2 0.00 0.00 0.00 84 1014.8
20260903060146 25 294 1.6 3.2 0.00 0.00 0.00 84 1014.8
20260903060018 25 297 1.6 3.2 0.00 0.00 0.00 84 1014.7
20260903055509 25 282 1.6 3.2 0.00 0.00 0.00 84 1014.7
20260903055013 25 277 1.6 3.2 0.00 0.00 0.00 84 1014.7
20260903054600 25 257 1.6 3.2 0.00 0.00 0.00 85 1014.8
20260903054532 25 264 1.6 3.2 0.00 0.00 0.00 85 1014.7
20260903054010 25 286 0.0 3.2 0.00 0.00 0.00 85 1014.6
20260903053512 25 290 1.6 3.2 0.00 0.00 0.00 86 1014.7
20260903053102 25 292 1.6 3.2 0.00 0.00 0.00 86 1014.7
20260903053031 25 280 1.6 3.2 0.00 0.00 0.00 87 1014.5
20260903052513 24 234 0.0 3.2 0.00 0.00 0.00 87 1014.5
20260903052017 24 288 0.0 0.0 0.00 0.00 0.00 88 1014.6
20260903051609 25 0 0.0 0.0 0.00 0.00 0.00 88 1014.7
20260903051534 25 271 0.0 0.0 0.00 0.00 0.00 88 1014.6
20260903051003 25 274 0.0 0.0 0.00 0.00 0.00 88 1014.4
20260903050503 25 255 0.0 3.2 0.00 0.00 0.00 87 1014.4
20260903050105 25 0 0.0 3.2 0.00 0.00 0.00 87 1014.7
20260903050016 25 279 0.0 3.2 0.00 0.00 0.00 87 1014.6
20260903045507 25 277 0.0 1.6 0.00 0.00 0.00 88 1014.5
20260903045006 25 280 0.0 1.6 0.00 0.00 0.00 87 1014.3
20260903044604 25 283 0.0 4.8 0.00 0.00 0.00 87 1014.6
20260903044521 25 282 0.0 3.2 0.00 0.00 0.00 87 1014.4
20260903044010 25 282 0.0 4.8 0.00 0.00 0.00 87 1014.4
20260903043514 25 281 1.6 4.8 0.00 0.00 0.00 87 1014.4
20260903043057 25 0 0.0 0.0 0.00 0.00 0.00 87 1014.5
20260903043029 25 274 0.0 0.0 0.00 0.00 0.00 87 1014.2
20260903042511 25 266 0.0 0.0 0.00 0.00 0.00 88 1014.2
20260903042013 25 259 0.0 1.6 0.00 0.00 0.00 88 1014.3
20260903041602 25 0 0.0 1.6 0.00 0.00 0.00 89 1014.4
20260903041532 25 244 0.0 1.6 0.00 0.00 0.00 89 1014.4
20260903041014 25 185 0.0 1.6 0.00 0.00 0.00 89 1014.3
20260903040517 25 262 0.0 1.6 0.00 0.00 0.00 90 1014.3
20260903040108 25 310 0.0 1.6 0.00 0.00 0.00 90 1014.4
20260903040011 25 319 0.0 1.6 0.00 0.00 0.00 90 1014.4
20260903035504 25 193 0.0 0.0 0.00 0.00 0.00 90 1014.4
20260903035005 25 192 0.0 0.0 0.00 0.00 0.00 90 1014.3
20260903034601 25 0 0.0 0.0 0.00 0.00 0.00 90 1014.4
20260903034517 25 195 0.0 0.0 0.00 0.00 0.00 90 1014.3
20260903034008 25 251 0.0 0.0 0.00 0.00 0.00 90 1014.3
20260903033507 25 207 0.0 1.6 0.00 0.00 0.00 90 1014.3
20260903033103 25 0 0.0 1.6 0.00 0.00 0.00 90 1014.4
20260903033031 25 196 0.0 1.6 0.00 0.00 0.00 90 1014.2
20260903032509 25 258 0.0 1.6 0.00 0.00 0.00 90 1014.4
20260903032014 25 259 0.0 1.6 0.00 0.00 0.00 90 1014.4
20260903031559 25 0 0.0 1.6 0.00 0.00 0.00 91 1014.4
20260903031532 25 260 0.0 1.6 0.00 0.00 0.00 91 1014.3
20260903031013 25 160 0.0 0.0 0.00 0.00 0.00 91 1014.2
20260903030517 25 233 0.0 0.0 0.00 0.00 0.00 92 1014.2
20260903030106 25 0 0.0 0.0 0.00 0.00 0.00 92 1014.4
20260903030032 25 233 0.0 0.0 0.00 0.00 0.00 92 1014.2
20260903025518 25 233 0.0 0.0 0.00 0.00 0.00 92 1014.2
20260903025016 25 233 0.0 0.0 0.00 0.00 0.00 92 1014.2
20260903024604 25 0 0.0 0.0 0.00 0.00 0.00 92 1014.4
20260903024509 25 233 0.0 0.0 0.00 0.00 0.00 92 1014.2
20260903024004 25 233 0.0 0.0 0.00 0.00 0.00 92 1014.3
20260903023507 25 257 0.0 0.0 0.00 0.00 0.00 92 1014.2
20260903023109 25 0 0.0 0.0 0.00 0.00 0.00 92 1014.5
20260903023021 25 257 0.0 0.0 0.00 0.00 0.00 92 1014.2
20260903022508 25 257 0.0 0.0 0.00 0.00 0.00 92 1014.2
20260903022011 25 257 0.0 0.0 0.00 0.00 0.00 92 1014.2
20260903021609 25 0 0.0 0.0 0.00 0.00 0.00 92 1014.5
20260903021534 25 257 0.0 0.0 0.00 0.00 0.00 92 1014.2
20260903021016 25 257 0.0 0.0 0.00 0.00 0.00 92 1014.2
20260903020513 26 257 0.0 0.0 0.00 0.00 0.00 92 1014.2
20260903020105 26 0 0.0 0.0 0.00 0.00 0.00 91 1014.4
20260903020031 26 257 0.0 0.0 0.00 0.00 0.00 91 1014.2
20260903015516 26 257 0.0 0.0 0.00 0.00 0.00 92 1014.2
20260903015014 26 257 0.0 0.0 0.00 0.00 0.00 92 1014.1
20260903014609 26 0 0.0 0.0 0.00 0.00 0.00 92 1014.4
20260903014535 26 257 0.0 0.0 0.00 0.00 0.00 92 1014.1
20260903014018 26 255 0.0 0.0 0.00 0.00 0.00 91 1014.1
20260903013519 26 255 0.0 0.0 0.00 0.00 0.00 91 1014.0
20260903013109 26 0 0.0 0.0 0.00 0.00 0.00 91 1014.2
20260903013014 26 255 0.0 0.0 0.00 0.00 0.00 91 1014.0
20260903012508 26 255 0.0 0.0 0.00 0.00 0.00 90 1014.0
20260903012009 26 255 0.0 0.0 0.00 0.00 0.00 90 1014.0
20260903011604 27 0 0.0 0.0 0.00 0.00 0.00 90 1014.1
20260903011521 27 255 0.0 0.0 0.00 0.00 0.00 90 1014.0
20260903011007 27 255 0.0 0.0 0.00 0.00 0.00 89 1013.9
20260903010513 27 255 0.0 0.0 0.00 0.00 0.00 89 1013.9
20260903010107 27 0 0.0 0.0 0.00 0.00 0.00 88 1014.1
20260903010026 27 255 0.0 0.0 0.00 0.00 0.00 88 1013.8
20260903005512 27 255 0.0 0.0 0.00 0.00 0.00 87 1013.9
20260903005012 28 255 0.0 0.0 0.00 0.00 0.00 86 1013.9
20260903004604 28 0 0.0 0.0 0.00 0.00 0.00 85 1014.0
20260903004536 28 255 0.0 0.0 0.00 0.00 0.00 85 1013.8
20260903004014 28 255 0.0 0.0 0.00 0.00 0.00 84 1013.8
20260903003517 29 255 0.0 0.0 0.00 0.00 0.00 83 1013.8
20260903003110 30 0 0.0 0.0 0.00 0.00 0.00 81 1014.0
20260903003032 30 255 0.0 0.0 0.00 0.00 0.00 81 1013.7
20260903002517 30 255 0.0 0.0 0.00 0.00 0.00 80 1013.8
20260903002018 31 255 0.0 0.0 0.00 0.00 0.00 77 1013.9
20260903001622 31 0 0.0 0.0 0.00 0.00 0.00 75 1014.1
20260903001517 31 255 0.0 0.0 0.00 0.00 0.00 75 1014.0
20260903001008 32 255 0.0 0.0 0.00 0.00 0.00 73 1013.9
20260903000510 32 255 0.0 0.0 0.00 0.00 0.00 71 1013.9
20260903000108 33 0 0.0 0.0 0.00 0.00 0.00 70 1014.1
20260903000021 33 255 0.0 0.0 0.00 0.00 0.00 70 1013.9
20260902235510 33 255 0.0 0.0 0.00 0.00 0.00 69 1013.9
20260902235016 33 255 0.0 0.0 0.00 0.00 0.00 68 1013.9
20260902234627 34 0 0.0 0.0 0.00 0.00 0.00 67 1014.1
20260902234527 34 255 0.0 0.0 0.00 0.00 0.00 67 1014.0
20260902234016 34 255 0.0 0.0 0.00 0.00 0.00 66 1013.9
20260902233516 34 255 0.0 0.0 0.00 0.00 0.00 66 1014.0
20260902233104 34 0 0.0 0.0 0.00 0.00 0.00 66 1014.2
20260902233032 34 255 0.0 0.0 0.00 0.00 0.00 66 1014.0
20260902232520 34 255 0.0 0.0 0.00 0.00 0.00 66 1014.0
20260902232017 34 255 0.0 0.0 0.00 0.00 0.00 66 1014.0
20260902231625 33 0 0.0 0.0 0.00 0.00 0.00 65 1014.2
20260902231532 33 255 0.0 0.0 0.00 0.00 0.00 65 1013.9
20260902231021 34 255 0.0 0.0 0.00 0.00 0.00 64 1014.0
20260902230518 34 255 0.0 0.0 0.00 0.00 0.00 64 1014.0
20260902230115 34 0 0.0 0.0 0.00 0.00 0.00 65 1014.3
20260902230016 34 267 0.0 0.0 0.00 0.00 0.00 65 1014.0
20260902225510 34 267 0.0 0.0 0.00 0.00 0.00 64 1014.0
20260902225012 33 272 0.0 0.0 0.00 0.00 0.00 65 1014.0
20260902224606 33 0 0.0 1.6 0.00 0.00 0.00 65 1014.3
20260902224526 33 271 0.0 1.6 0.00 0.00 0.00 65 1014.1
20260902224011 33 231 0.0 1.6 0.00 0.00 0.00 63 1014.1
20260902223512 33 262 0.0 4.8 0.00 0.00 0.00 63 1014.1
20260902223105 33 275 1.6 4.8 0.00 0.00 0.00 63 1014.4
20260902223030 33 274 1.6 4.8 0.00 0.00 0.00 62 1014.1
20260902222513 33 274 1.6 4.8 0.00 0.00 0.00 64 1014.2
20260902222016 33 265 1.6 4.8 0.00 0.00 0.00 63 1014.1
20260902221605 33 0 1.6 6.4 0.00 0.00 0.00 64 1014.3
20260902221531 33 285 1.6 6.4 0.00 0.00 0.00 64 1014.1
20260902221019 33 278 3.2 6.4 0.00 0.00 0.00 61 1014.1
20260902220519 33 285 3.2 6.4 0.00 0.00 0.00 62 1014.2
20260902220113 33 276 1.6 6.4 0.00 0.00 0.00 63 1014.5
20260902220036 33 251 1.6 6.4 0.00 0.00 0.00 63 1014.2
20260902215520 33 240 1.6 6.4 0.00 0.00 0.00 62 1014.1
20260902215016 33 213 1.6 8.0 0.00 0.00 0.00 62 1014.2
20260902214614 33 297 3.2 8.0 0.00 0.00 0.00 61 1014.5
20260902214528 33 281 4.8 8.0 0.00 0.00 0.00 61 1014.2
20260902214012 33 271 1.6 8.0 0.00 0.00 0.00 62 1014.2
20260902213511 33 278 3.2 8.0 0.00 0.00 0.00 62 1014.2
20260902213101 33 293 1.6 8.0 0.00 0.00 0.00 64 1014.5
20260902213030 33 259 1.6 6.4 0.00 0.00 0.00 64 1014.3
20260902212512 33 293 3.2 8.0 0.00 0.00 0.00 62 1014.3
20260902212013 33 302 3.2 8.0 0.00 0.00 0.00 62 1014.3
20260902211604 33 261 3.2 6.4 0.00 0.00 0.00 62 1014.6
20260902211530 33 282 3.2 6.4 0.00 0.00 0.00 61 1014.4
20260902211017 33 201 3.2 9.7 0.00 0.00 0.00 61 1014.4
20260902210514 33 306 4.8 9.7 0.00 0.00 0.00 62 1014.4
20260902210103 33 255 3.2 9.7 0.00 0.00 0.00 62 1014.6
20260902210049 33 304 3.2 9.7 0.00 0.00 0.00 62 1014.4
20260902205521 33 278 4.8 9.7 0.00 0.00 0.00 62 1014.4
20260902205016 33 287 3.2 8.0 0.00 0.00 0.00 60 1014.5
20260902204608 33 291 4.8 11.3 0.00 0.00 0.00 62 1014.8
20260902204535 33 281 4.8 11.3 0.00 0.00 0.00 61 1014.5
20260902204008 33 290 4.8 11.3 0.00 0.00 0.00 61 1014.5
20260902203508 33 290 3.2 12.9 0.00 0.00 0.00 63 1014.6
20260902203100 33 313 6.4 12.9 0.00 0.00 0.00 61 1014.7
20260902203024 33 240 6.4 12.9 0.00 0.00 0.00 61 1014.6
20260902202512 33 267 4.8 12.9 0.00 0.00 0.00 63 1014.6
20260902202014 33 283 4.8 9.7 0.00 0.00 0.00 62 1014.6
20260902201605 33 274 4.8 8.0 0.00 0.00 0.00 61 1014.8
20260902201504 33 298 4.8 8.0 0.00 0.00 0.00 61 1014.6
20260902201004 33 271 3.2 9.7 0.00 0.00 0.00 63 1014.7
20260902200505 33 252 3.2 9.7 0.00 0.00 0.00 63 1014.8
20260902200109 33 245 3.2 8.0 0.00 0.00 0.00 64 1014.9
20260902200013 33 278 3.2 8.0 0.00 0.00 0.00 63 1014.8
20260902195504 33 266 3.2 9.7 0.00 0.00 0.00 66 1014.9
20260902195004 33 263 3.2 9.7 0.00 0.00 0.00 63 1015.0
20260902194603 33 267 3.2 6.4 0.00 0.00 0.00 62 1015.1
20260902194515 33 298 3.2 6.4 0.00 0.00 0.00 60 1015.0
20260902194005 33 284 3.2 6.4 0.00 0.00 0.00 64 1015.0
20260902193508 33 289 3.2 8.0 0.00 0.00 0.00 65 1015.1
20260902193105 33 283 4.8 9.7 0.00 0.00 0.00 64 1015.3
20260902193019 33 274 4.8 9.7 0.00 0.00 0.00 61 1015.1
20260902192510 33 277 4.8 9.7 0.00 0.00 0.00 62 1015.2
20260902192011 33 280 4.8 11.3 0.00 0.00 0.00 64 1015.3
20260902191605 33 257 6.4 11.3 0.00 0.00 0.00 62 1015.3
20260902191529 33 264 6.4 11.3 0.00 0.00 0.00 61 1015.3
20260902191011 33 270 4.8 11.3 0.00 0.00 0.00 61 1015.3
20260902190513 33 258 4.8 11.3 0.00 0.00 0.00 63 1015.4
20260902190105 33 269 4.8 17.7 0.00 0.00 0.00 65 1015.7
20260902190006 33 233 4.8 17.7 0.00 0.00 0.00 64 1015.4
20260902185504 33 257 1.6 17.7 0.00 0.00 0.00 67 1015.5
20260902185004 33 297 8.0 14.5 0.00 0.00 0.00 61 1015.5
20260902184657 33 298 4.8 12.9 0.00 0.00 0.00 64 1015.7
20260902184518 33 287 4.8 12.9 0.00 0.00 0.00 64 1015.4
20260902184003 33 262 4.8 14.5 0.00 0.00 0.00 64 1015.5
20260902183504 33 285 6.4 14.5 0.00 0.00 0.00 62 1015.4
20260902183105 33 295 4.8 11.3 0.00 0.00 0.00 64 1015.7
20260902183018 33 293 4.8 11.3 0.00 0.00 0.00 66 1015.5
20260902182509 33 311 4.8 14.5 0.00 0.00 0.00 66 1015.5
20260902182007 33 298 6.4 14.5 0.00 0.00 0.00 64 1015.5
20260902181605 32 292 6.4 14.5 0.00 0.00 0.00 62 1015.6
20260902181520 32 297 8.0 14.5 0.00 0.00 0.00 64 1015.6
20260902181009 32 271 6.4 16.1 0.00 0.00 0.00 64 1015.7
20260902180511 32 292 8.0 16.1 0.00 0.00 0.00 63 1015.8
20260902180109 33 288 4.8 11.3 0.00 0.00 0.00 65 1015.8
20260902180024 33 277 4.8 11.3 0.00 0.00 0.00 66 1015.8
20260902175512 33 281 4.8 8.0 0.00 0.00 0.00 68 1015.7
20260902175015 33 240 3.2 9.7 0.00 0.00 0.00 68 1015.7
20260902174607 32 285 4.8 9.7 0.00 0.00 0.00 68 1015.7
20260902174507 32 280 4.8 9.7 0.00 0.00 0.00 68 1015.6
20260902174004 32 236 6.4 16.1 0.00 0.00 0.00 67 1015.7
20260902173505 32 293 4.8 16.1 0.00 0.00 0.00 68 1015.7
20260902173104 32 272 4.8 11.3 0.00 0.00 0.00 67 1015.9
20260902173010 32 247 4.8 11.3 0.00 0.00 0.00 68 1015.7
20260902172504 32 293 6.4 11.3 0.00 0.00 0.00 68 1015.7
20260902172006 32 272 6.4 11.3 0.00 0.00 0.00 68 1015.8
20260902171609 32 278 6.4 12.9 0.00 0.00 0.00 68 1015.9
20260902171521 32 246 6.4 12.9 0.00 0.00 0.00 67 1015.7
20260902171007 32 280 4.8 12.9 0.00 0.00 0.00 69 1015.8
20260902170508 32 257 6.4 9.7 0.00 0.00 0.00 69 1015.8
20260902170022 31 279 3.2 9.7 0.00 0.00 0.00 72 1015.9
20260902165513 31 256 4.8 9.7 0.00 0.00 0.00 71 1016.0
20260902165011 31 288 6.4 9.7 0.00 0.00 0.00 71 1016.0
20260902164603 31 281 3.2 8.0 0.00 0.00 0.00 72 1016.0
20260902164530 31 242 3.2 8.0 0.00 0.00 0.00 73 1016.0
20260902164015 31 283 4.8 8.0 0.00 0.00 0.00 71 1016.1
20260902163514 31 242 3.2 8.0 0.00 0.00 0.00 73 1016.2
20260902163100 30 281 3.2 9.7 0.00 0.00 0.00 72 1016.1
20260902163007 30 268 3.2 9.7 0.00 0.00 0.00 72 1016.2
20260902162504 30 290 6.4 11.3 0.00 0.00 0.00 70 1016.0
20260902162005 30 279 6.4 12.9 0.00 0.00 0.00 70 1016.2
20260902161611 30 287 6.4 14.5 0.00 0.00 0.00 70 1016.1
20260902161518 31 288 6.4 14.5 0.00 0.00 0.00 70 1016.2
20260902161013 30 300 6.4 14.5 0.00 0.00 0.00 71 1016.2
20260902160509 30 300 8.0 14.5 0.00 0.00 0.00 71 1016.2